| time (UTC) | temp F | wind direction | speed knots | gust knots | rain 1hr in | rain 24hr in | rain mn in | humidity % | barometer mb |
| 20260902165503 | 63 | 241 | 4.3 | 8.7 | 0.00 | 0.00 | 0.00 | 48 | 1019.7 |
| 20260902165002 | 62 | 247 | 4.3 | 7.0 | 0.00 | 0.00 | 0.00 | 49 | 1019.8 |
| 20260902164502 | 62 | 240 | 4.3 | 7.8 | 0.00 | 0.00 | 0.00 | 50 | 1019.7 |
| 20260902164002 | 61 | 243 | 4.3 | 8.7 | 0.00 | 0.00 | 0.00 | 51 | 1019.7 |
| 20260902163503 | 61 | 243 | 4.3 | 5.2 | 0.00 | 0.00 | 0.00 | 51 | 1019.8 |
| 20260902163002 | 60 | 239 | 4.3 | 7.0 | 0.00 | 0.00 | 0.00 | 52 | 1019.7 |
| 20260902162502 | 60 | 238 | 3.5 | 8.7 | 0.00 | 0.00 | 0.00 | 53 | 1019.8 |
| 20260902162002 | 60 | 247 | 2.6 | 6.1 | 0.00 | 0.00 | 0.00 | 55 | 1019.8 |
| 20260902161503 | 59 | 241 | 1.7 | 7.0 | 0.00 | 0.00 | 0.00 | 56 | 1019.6 |
| 20260902161002 | 58 | 244 | 1.7 | 3.5 | 0.00 | 0.00 | 0.00 | 56 | 1019.7 |
| 20260902160502 | 58 | 249 | 1.7 | 7.0 | 0.00 | 0.00 | 0.00 | 56 | 1019.6 |
| 20260902160003 | 57 | 248 | 0.9 | 3.5 | 0.00 | 0.00 | 0.00 | 58 | 1019.6 |
| 20260902155502 | 56 | 246 | 0.0 | 1.7 | 0.00 | 0.00 | 0.00 | 61 | 1019.8 |
| 20260902155002 | 54 | 270 | 0.0 | 0.9 | 0.00 | 0.00 | 0.00 | 64 | 1019.9 |
| 20260902154502 | 53 | 299 | 0.0 | 0.9 | 0.00 | 0.00 | 0.00 | 67 | 1019.7 |
| 20260902154002 | 52 | 300 | 0.0 | 0.9 | 0.00 | 0.00 | 0.00 | 70 | 1019.8 |
| 20260902153502 | 51 | 299 | 0.0 | 0.9 | 0.00 | 0.00 | 0.00 | 72 | 1019.8 |
| 20260902153003 | 50 | 299 | 0.0 | 0.9 | 0.00 | 0.00 | 0.00 | 73 | 1019.7 |
| 20260902152502 | 50 | 299 | 0.0 | 0.9 | 0.00 | 0.00 | 0.00 | 74 | 1019.9 |
| 20260902152003 | 49 | 356 | 0.0 | 0.9 | 0.00 | 0.00 | 0.00 | 76 | 1019.9 |
| 20260902151002 | 47 | 0 | 0.0 | 0.0 | 0.00 | 0.00 | 0.00 | 78 | 1020.0 |
| 20260902150003 | 46 | 0 | 0.0 | 0.0 | 0.00 | 0.00 | 0.00 | 79 | 1020.0 |
| 20260902145502 | 46 | 0 | 0.0 | 0.0 | 0.00 | 0.00 | 0.00 | 79 | 1020.0 |
| 20260902144503 | 45 | 0 | 0.0 | 0.0 | 0.00 | 0.00 | 0.00 | 79 | 1020.0 |
| 20260902144002 | 45 | 0 | 0.0 | 0.0 | 0.00 | 0.00 | 0.00 | 79 | 1019.9 |
| 20260902143503 | 45 | 0 | 0.0 | 0.0 | 0.00 | 0.00 | 0.00 | 78 | 1019.9 |
| 20260902143002 | 45 | 0 | 0.0 | 0.0 | 0.00 | 0.00 | 0.00 | 78 | 1019.9 |
| 20260902142503 | 44 | 0 | 0.0 | 0.0 | 0.00 | 0.00 | 0.00 | 78 | 1019.8 |
| 20260902142003 | 44 | 0 | 0.0 | 0.0 | 0.00 | 0.00 | 0.00 | 77 | 1019.7 |
| 20260902141502 | 44 | 0 | 0.0 | 0.0 | 0.00 | 0.00 | 0.00 | 77 | 1019.7 |
| 20260902141002 | 44 | 0 | 0.0 | 0.0 | 0.00 | 0.00 | 0.00 | 76 | 1019.6 |
| 20260902140503 | 44 | 6 | 0.0 | 0.9 | 0.00 | 0.00 | 0.00 | 76 | 1019.7 |
| 20260902140003 | 44 | 6 | 0.0 | 0.9 | 0.00 | 0.00 | 0.00 | 75 | 1019.6 |
| 20260902135003 | 44 | 0 | 0.0 | 0.0 | 0.00 | 0.00 | 0.00 | 74 | 1019.5 |
| 20260902134502 | 44 | 0 | 0.0 | 0.0 | 0.00 | 0.00 | 0.00 | 73 | 1019.7 |
| 20260902134003 | 45 | 0 | 0.0 | 0.0 | 0.00 | 0.00 | 0.00 | 73 | 1019.7 |
| 20260902133503 | 45 | 0 | 0.0 | 0.0 | 0.00 | 0.00 | 0.00 | 72 | 1019.6 |
| 20260902133003 | 45 | 0 | 0.0 | 0.0 | 0.00 | 0.00 | 0.00 | 72 | 1019.5 |
| 20260902132502 | 45 | 0 | 0.0 | 0.0 | 0.00 | 0.00 | 0.00 | 72 | 1019.4 |
| 20260902132003 | 45 | 0 | 0.0 | 0.0 | 0.00 | 0.00 | 0.00 | 72 | 1019.4 |
| 20260902131502 | 45 | 0 | 0.0 | 0.0 | 0.00 | 0.00 | 0.00 | 71 | 1019.3 |
| 20260902130503 | 46 | 0 | 0.0 | 0.0 | 0.00 | 0.00 | 0.00 | 72 | 1019.3 |
| 20260902130003 | 46 | 0 | 0.0 | 0.0 | 0.00 | 0.00 | 0.00 | 71 | 1019.2 |
| 20260902125503 | 46 | 0 | 0.0 | 0.0 | 0.00 | 0.00 | 0.00 | 69 | 1019.3 |
| 20260902125002 | 46 | 0 | 0.0 | 0.0 | 0.00 | 0.00 | 0.00 | 69 | 1019.2 |
| 20260902124503 | 47 | 0 | 0.0 | 0.0 | 0.00 | 0.00 | 0.00 | 68 | 1019.1 |
| 20260902124002 | 47 | 303 | 0.0 | 0.9 | 0.00 | 0.00 | 0.00 | 68 | 1019.1 |
| 20260902123502 | 47 | 0 | 0.0 | 0.0 | 0.00 | 0.00 | 0.00 | 68 | 1019.2 |
| 20260902123003 | 47 | 0 | 0.0 | 0.0 | 0.00 | 0.00 | 0.00 | 68 | 1019.2 |
| 20260902122502 | 48 | 0 | 0.0 | 0.0 | 0.00 | 0.00 | 0.00 | 67 | 1019.3 |
| 20260902122003 | 48 | 0 | 0.0 | 0.0 | 0.00 | 0.00 | 0.00 | 68 | 1019.3 |
| 20260902121503 | 48 | 303 | 0.0 | 0.9 | 0.00 | 0.00 | 0.00 | 69 | 1019.2 |
| 20260902121002 | 48 | 0 | 0.0 | 0.0 | 0.00 | 0.00 | 0.00 | 68 | 1019.2 |
| 20260902120503 | 48 | 0 | 0.0 | 0.0 | 0.00 | 0.00 | 0.00 | 69 | 1019.2 |
| 20260902115503 | 48 | 0 | 0.0 | 0.0 | 0.00 | 0.00 | 0.00 | 68 | 1019.2 |
| 20260902115003 | 49 | 303 | 0.0 | 0.9 | 0.00 | 0.00 | 0.00 | 68 | 1019.2 |
| 20260902114502 | 49 | 303 | 0.0 | 0.9 | 0.00 | 0.00 | 0.00 | 67 | 1019.2 |
| 20260902114002 | 49 | 304 | 0.0 | 0.9 | 0.00 | 0.00 | 0.00 | 67 | 1019.2 |
| 20260902113503 | 49 | 304 | 0.0 | 1.7 | 0.00 | 0.00 | 0.00 | 66 | 1019.2 |
| 20260902113003 | 49 | 302 | 0.0 | 0.9 | 0.00 | 0.00 | 0.00 | 66 | 1019.2 |
| 20260902112503 | 49 | 292 | 0.0 | 0.9 | 0.00 | 0.00 | 0.00 | 65 | 1019.3 |
| 20260902112003 | 50 | 289 | 0.0 | 0.9 | 0.00 | 0.00 | 0.00 | 64 | 1019.3 |
| 20260902111502 | 50 | 289 | 0.0 | 0.9 | 0.00 | 0.00 | 0.00 | 63 | 1019.3 |
| 20260902111003 | 51 | 283 | 0.0 | 1.7 | 0.00 | 0.00 | 0.00 | 62 | 1019.3 |
| 20260902110503 | 51 | 0 | 0.0 | 0.0 | 0.00 | 0.00 | 0.00 | 61 | 1019.3 |
| 20260902110003 | 52 | 271 | 0.0 | 0.9 | 0.00 | 0.00 | 0.00 | 60 | 1019.3 |
| 20260902105502 | 52 | 0 | 0.0 | 0.0 | 0.00 | 0.00 | 0.00 | 59 | 1019.3 |
| 20260902105003 | 52 | 0 | 0.0 | 0.0 | 0.00 | 0.00 | 0.00 | 59 | 1019.2 |
| 20260902104502 | 53 | 267 | 0.0 | 0.9 | 0.00 | 0.00 | 0.00 | 58 | 1019.2 |
| 20260902104002 | 53 | 0 | 0.0 | 0.0 | 0.00 | 0.00 | 0.00 | 58 | 1019.2 |
| 20260902103503 | 53 | 267 | 0.0 | 0.9 | 0.00 | 0.00 | 0.00 | 57 | 1019.2 |
| 20260902103003 | 54 | 0 | 0.0 | 0.0 | 0.00 | 0.00 | 0.00 | 56 | 1019.2 |
| 20260902102502 | 54 | 267 | 0.0 | 0.9 | 0.00 | 0.00 | 0.00 | 56 | 1019.2 |
| 20260902102002 | 54 | 182 | 0.9 | 0.9 | 0.00 | 0.00 | 0.00 | 55 | 1019.2 |
| 20260902101002 | 55 | 139 | 1.7 | 2.6 | 0.00 | 0.00 | 0.00 | 58 | 1019.2 |
| 20260902100503 | 55 | 145 | 1.7 | 4.3 | 0.00 | 0.00 | 0.00 | 57 | 1019.2 |
| 20260902095003 | 55 | 122 | 2.6 | 5.2 | 0.00 | 0.00 | 0.00 | 53 | 1019.2 |
| 20260902093503 | 55 | 118 | 2.6 | 2.6 | 0.00 | 0.00 | 0.00 | 53 | 1019.3 |
| 20260902093003 | 55 | 128 | 1.7 | 6.1 | 0.00 | 0.00 | 0.00 | 53 | 1019.4 |
| 20260902092503 | 56 | 123 | 1.7 | 6.1 | 0.00 | 0.00 | 0.00 | 54 | 1019.4 |
| 20260902092003 | 56 | 107 | 1.7 | 2.6 | 0.00 | 0.00 | 0.00 | 55 | 1019.5 |
| 20260902091502 | 56 | 101 | 1.7 | 5.2 | 0.00 | 0.00 | 0.00 | 56 | 1019.4 |
| 20260902091003 | 56 | 95 | 0.9 | 3.5 | 0.00 | 0.00 | 0.00 | 55 | 1019.5 |
| 20260902090004 | 57 | 104 | 0.0 | 1.7 | 0.00 | 0.00 | 0.00 | 56 | 1019.6 |
| 20260902085503 | 57 | 184 | 0.0 | 0.9 | 0.00 | 0.00 | 0.00 | 56 | 1019.7 |
| 20260902085003 | 57 | 187 | 0.0 | 0.9 | 0.00 | 0.00 | 0.00 | 56 | 1019.7 |
| 20260902084503 | 57 | 0 | 0.9 | 0.0 | 0.00 | 0.00 | 0.00 | 56 | 1019.7 |
| 20260902084003 | 57 | 177 | 0.9 | 2.6 | 0.00 | 0.00 | 0.00 | 56 | 1019.7 |
| 20260902083503 | 57 | 157 | 0.9 | 4.3 | 0.00 | 0.00 | 0.00 | 56 | 1019.7 |
| 20260902083003 | 57 | 156 | 0.9 | 4.3 | 0.00 | 0.00 | 0.00 | 55 | 1019.6 |
| 20260902082002 | 58 | 170 | 0.0 | 0.9 | 0.00 | 0.00 | 0.00 | 54 | 1019.6 |
| 20260902081503 | 58 | 0 | 0.0 | 0.0 | 0.00 | 0.00 | 0.00 | 53 | 1019.6 |
| 20260902081003 | 58 | 173 | 0.0 | 0.9 | 0.00 | 0.00 | 0.00 | 53 | 1019.5 |
| 20260902080502 | 58 | 173 | 0.0 | 0.9 | 0.00 | 0.00 | 0.00 | 53 | 1019.6 |
| 20260902080003 | 58 | 170 | 0.9 | 1.7 | 0.00 | 0.00 | 0.00 | 53 | 1019.5 |
| 20260902075503 | 58 | 148 | 1.7 | 2.6 | 0.00 | 0.00 | 0.00 | 53 | 1019.4 |
| 20260902075003 | 58 | 138 | 1.7 | 4.3 | 0.00 | 0.00 | 0.00 | 53 | 1019.4 |
| 20260902074503 | 58 | 140 | 0.9 | 7.0 | 0.00 | 0.00 | 0.00 | 53 | 1019.3 |
| 20260902074002 | 58 | 116 | 0.9 | 1.7 | 0.00 | 0.00 | 0.00 | 54 | 1019.4 |
| 20260902073503 | 58 | 101 | 0.9 | 2.6 | 0.00 | 0.00 | 0.00 | 53 | 1019.3 |
| 20260902073003 | 58 | 137 | 0.0 | 3.5 | 0.00 | 0.00 | 0.00 | 53 | 1019.3 |
| 20260902072502 | 59 | 117 | 0.0 | 2.6 | 0.00 | 0.00 | 0.00 | 52 | 1019.2 |
| 20260902072003 | 59 | 143 | 0.0 | 1.7 | 0.00 | 0.00 | 0.00 | 52 | 1019.2 |
| 20260902071503 | 59 | 0 | 0.0 | 0.0 | 0.00 | 0.00 | 0.00 | 51 | 1019.2 |
| 20260902071003 | 59 | 0 | 0.0 | 0.0 | 0.00 | 0.00 | 0.00 | 51 | 1019.2 |
| 20260902065503 | 59 | 148 | 1.7 | 4.3 | 0.00 | 0.00 | 0.00 | 51 | 1019.2 |
| 20260902065004 | 60 | 147 | 0.9 | 2.6 | 0.00 | 0.00 | 0.00 | 51 | 1019.2 |
| 20260902064503 | 60 | 147 | 0.9 | 3.5 | 0.00 | 0.00 | 0.00 | 50 | 1019.1 |
| 20260902064003 | 60 | 144 | 0.9 | 1.7 | 0.00 | 0.00 | 0.00 | 50 | 1019.2 |
| 20260902063503 | 60 | 154 | 0.9 | 1.7 | 0.00 | 0.00 | 0.00 | 50 | 1019.1 |
| 20260902062503 | 60 | 200 | 0.0 | 1.7 | 0.00 | 0.00 | 0.00 | 50 | 1019.1 |
| 20260902062003 | 60 | 0 | 0.9 | 0.0 | 0.00 | 0.00 | 0.00 | 51 | 1019.1 |
| 20260902061503 | 60 | 190 | 0.9 | 2.6 | 0.00 | 0.00 | 0.00 | 51 | 1019.0 |
| 20260902061003 | 60 | 172 | 0.9 | 4.3 | 0.00 | 0.00 | 0.00 | 52 | 1019.0 |
| 20260902060503 | 60 | 181 | 0.9 | 0.9 | 0.00 | 0.00 | 0.00 | 52 | 1018.9 |
| 20260902060004 | 60 | 174 | 0.9 | 3.5 | 0.00 | 0.00 | 0.00 | 53 | 1018.8 |
| 20260902055502 | 60 | 167 | 0.0 | 3.5 | 0.00 | 0.00 | 0.00 | 52 | 1018.7 |
| 20260902055003 | 60 | 229 | 0.0 | 0.9 | 0.00 | 0.00 | 0.00 | 52 | 1018.7 |
| 20260902054503 | 60 | 0 | 0.0 | 0.0 | 0.00 | 0.00 | 0.00 | 51 | 1018.7 |
| 20260902054003 | 60 | 199 | 0.0 | 0.9 | 0.00 | 0.00 | 0.00 | 51 | 1018.7 |
| 20260902053003 | 61 | 0 | 0.0 | 0.0 | 0.00 | 0.00 | 0.00 | 50 | 1019.0 |
| 20260902052503 | 61 | 182 | 0.0 | 0.9 | 0.00 | 0.00 | 0.00 | 51 | 1019.1 |
| 20260902052003 | 61 | 182 | 0.9 | 0.9 | 0.00 | 0.00 | 0.00 | 51 | 1019.1 |
| 20260902051003 | 61 | 185 | 0.9 | 2.6 | 0.00 | 0.00 | 0.00 | 50 | 1019.2 |
| 20260902050504 | 61 | 162 | 0.9 | 3.5 | 0.00 | 0.00 | 0.00 | 50 | 1019.2 |
| 20260902050006 | 61 | 172 | 0.9 | 1.7 | 0.00 | 0.00 | 0.00 | 50 | 1019.1 |
| 20260902045503 | 61 | 187 | 0.9 | 1.7 | 0.00 | 0.00 | 0.00 | 50 | 1019.1 |
| 20260902044503 | 62 | 0 | 0.0 | 0.0 | 0.00 | 0.00 | 0.00 | 49 | 1019.1 |
| 20260902044002 | 62 | 190 | 0.0 | 0.9 | 0.00 | 0.00 | 0.00 | 49 | 1019.1 |
| 20260902043503 | 62 | 182 | 0.0 | 0.9 | 0.00 | 0.00 | 0.00 | 49 | 1019.0 |
| 20260902043004 | 62 | 0 | 0.0 | 0.0 | 0.00 | 0.00 | 0.00 | 48 | 1018.9 |
| 20260902042503 | 62 | 181 | 0.0 | 0.9 | 0.00 | 0.00 | 0.00 | 48 | 1018.9 |
| 20260902042003 | 62 | 0 | 0.0 | 0.0 | 0.00 | 0.00 | 0.00 | 48 | 1018.8 |
| 20260902041504 | 62 | 186 | 0.0 | 0.9 | 0.00 | 0.00 | 0.00 | 48 | 1018.7 |
| 20260902041003 | 62 | 187 | 0.0 | 1.7 | 0.00 | 0.00 | 0.00 | 48 | 1018.6 |
| 20260902040503 | 62 | 0 | 0.0 | 0.0 | 0.00 | 0.00 | 0.00 | 48 | 1018.6 |
| 20260902040003 | 62 | 0 | 0.0 | 0.0 | 0.00 | 0.00 | 0.00 | 48 | 1018.4 |
| 20260902035503 | 62 | 0 | 0.0 | 0.0 | 0.00 | 0.00 | 0.00 | 48 | 1018.4 |
| 20260902035003 | 63 | 164 | 0.9 | 0.9 | 0.00 | 0.00 | 0.00 | 48 | 1018.3 |
| 20260902034503 | 63 | 161 | 1.7 | 2.6 | 0.00 | 0.00 | 0.00 | 48 | 1018.2 |
| 20260902034003 | 63 | 181 | 1.7 | 7.0 | 0.00 | 0.00 | 0.00 | 47 | 1018.2 |
| 20260902032003 | 64 | 136 | 0.9 | 1.7 | 0.00 | 0.00 | 0.00 | 47 | 1017.9 |
| 20260902031503 | 64 | 135 | 0.9 | 1.7 | 0.00 | 0.00 | 0.00 | 48 | 1017.9 |
| 20260902031002 | 64 | 139 | 0.0 | 1.7 | 0.00 | 0.00 | 0.00 | 47 | 1017.9 |
| 20260902030003 | 65 | 166 | 0.9 | 1.7 | 0.00 | 0.00 | 0.00 | 45 | 1017.6 |
| 20260902025503 | 65 | 185 | 1.7 | 2.6 | 0.00 | 0.00 | 0.00 | 44 | 1017.6 |
| 20260902025004 | 65 | 186 | 2.6 | 3.5 | 0.00 | 0.00 | 0.00 | 42 | 1017.5 |
| 20260902024503 | 66 | 187 | 2.6 | 3.5 | 0.00 | 0.00 | 0.00 | 41 | 1017.4 |
| 20260902024003 | 66 | 192 | 3.5 | 3.5 | 0.00 | 0.00 | 0.00 | 41 | 1017.4 |
| 20260902023003 | 66 | 229 | 2.6 | 7.0 | 0.00 | 0.00 | 0.00 | 41 | 1017.3 |
| 20260902022004 | 67 | 240 | 3.5 | 4.3 | 0.00 | 0.00 | 0.00 | 41 | 1017.2 |
| 20260902021503 | 67 | 244 | 4.3 | 4.3 | 0.00 | 0.00 | 0.00 | 40 | 1017.2 |
| 20260902021003 | 67 | 248 | 4.3 | 6.1 | 0.00 | 0.00 | 0.00 | 40 | 1017.2 |
| 20260902020503 | 67 | 241 | 5.2 | 7.8 | 0.00 | 0.00 | 0.00 | 41 | 1017.1 |
| 20260902020004 | 68 | 239 | 5.2 | 7.8 | 0.00 | 0.00 | 0.00 | 40 | 1017.4 |
| 20260902015503 | 68 | 243 | 5.2 | 7.8 | 0.00 | 0.00 | 0.00 | 38 | 1017.5 |
| 20260902015003 | 69 | 243 | 4.3 | 7.0 | 0.00 | 0.00 | 0.00 | 38 | 1017.4 |
| 20260902014503 | 69 | 243 | 3.5 | 7.8 | 0.00 | 0.00 | 0.00 | 36 | 1017.4 |
| 20260902014003 | 70 | 251 | 3.5 | 7.0 | 0.00 | 0.00 | 0.00 | 35 | 1017.4 |
| 20260902013504 | 71 | 247 | 2.6 | 7.8 | 0.00 | 0.00 | 0.00 | 32 | 1017.3 |
| 20260902013004 | 71 | 250 | 1.7 | 7.0 | 0.00 | 0.00 | 0.00 | 30 | 1017.3 |
| 20260902012503 | 71 | 255 | 3.5 | 3.5 | 0.00 | 0.00 | 0.00 | 30 | 1017.2 |
| 20260902012003 | 72 | 243 | 5.2 | 7.0 | 0.00 | 0.00 | 0.00 | 30 | 1017.1 |
| 20260902011504 | 72 | 242 | 5.2 | 8.7 | 0.00 | 0.00 | 0.00 | 30 | 1017.1 |
| 20260902011003 | 72 | 238 | 4.3 | 8.7 | 0.00 | 0.00 | 0.00 | 29 | 1017.2 |
| 20260902010004 | 73 | 243 | 5.2 | 11.3 | 0.00 | 0.00 | 0.00 | 24 | 1017.1 |
| 20260902005504 | 73 | 235 | 6.1 | 10.4 | 0.00 | 0.00 | 0.00 | 25 | 1017.0 |
| 20260902005003 | 73 | 240 | 6.1 | 12.2 | 0.00 | 0.00 | 0.00 | 24 | 1017.0 |
| 20260902004503 | 73 | 232 | 7.0 | 8.7 | 0.00 | 0.00 | 0.00 | 24 | 1017.1 |
| 20260902004003 | 74 | 231 | 7.0 | 12.2 | 0.00 | 0.00 | 0.00 | 24 | 1017.0 |
| 20260902003003 | 74 | 230 | 7.8 | 11.3 | 0.00 | 0.00 | 0.00 | 25 | 1016.9 |
| 20260902002503 | 74 | 233 | 8.7 | 12.2 | 0.00 | 0.00 | 0.00 | 25 | 1016.9 |
| 20260902002004 | 74 | 227 | 8.7 | 13.0 | 0.00 | 0.00 | 0.00 | 24 | 1016.8 |
| 20260902001503 | 75 | 237 | 7.0 | 13.0 | 0.00 | 0.00 | 0.00 | 24 | 1016.8 |
| 20260902001003 | 75 | 237 | 6.1 | 13.0 | 0.00 | 0.00 | 0.00 | 23 | 1016.8 |
| 20260902000503 | 75 | 215 | 7.0 | 8.7 | 0.00 | 0.00 | 0.00 | 25 | 1016.9 |
| 20260902000004 | 75 | 223 | 7.8 | 13.0 | 0.00 | 0.00 | 0.00 | 24 | 1016.9 |
| 20260901235504 | 75 | 228 | 7.8 | 10.4 | 0.00 | 0.00 | 0.00 | 23 | 1017.2 |
| 20260901235003 | 76 | 233 | 7.8 | 16.5 | 0.00 | 0.00 | 0.00 | 23 | 1017.2 |
| 20260901234503 | 75 | 228 | 7.8 | 10.4 | 0.00 | 0.00 | 0.00 | 24 | 1017.3 |
| 20260901233504 | 76 | 228 | 6.1 | 12.2 | 0.00 | 0.00 | 0.00 | 23 | 1017.3 |
| 20260901233003 | 76 | 226 | 6.1 | 11.3 | 0.00 | 0.00 | 0.00 | 23 | 1017.3 |
| 20260901232503 | 77 | 228 | 5.2 | 10.4 | 0.00 | 0.00 | 0.00 | 24 | 1017.4 |
| 20260901231503 | 77 | 224 | 6.1 | 7.8 | 0.00 | 0.00 | 0.00 | 24 | 1017.4 |
| 20260901231003 | 77 | 225 | 6.1 | 12.2 | 0.00 | 0.00 | 0.00 | 24 | 1017.5 |
| 20260901230004 | 77 | 222 | 4.3 | 8.7 | 0.00 | 0.00 | 0.00 | 26 | 1017.6 |
| 20260901225503 | 77 | 209 | 5.2 | 6.1 | 0.00 | 0.00 | 0.00 | 25 | 1017.6 |
| 20260901224504 | 77 | 238 | 4.3 | 13.0 | 0.00 | 0.00 | 0.00 | 25 | 1017.6 |
| 20260901224003 | 76 | 231 | 4.3 | 7.8 | 0.00 | 0.00 | 0.00 | 23 | 1017.7 |
| 20260901222503 | 75 | 223 | 6.1 | 12.2 | 0.00 | 0.00 | 0.00 | 23 | 1017.6 |
| 20260901222003 | 75 | 212 | 6.1 | 9.6 | 0.00 | 0.00 | 0.00 | 24 | 1017.6 |
| 20260901221004 | 75 | 203 | 8.7 | 10.4 | 0.00 | 0.00 | 0.00 | 25 | 1017.6 |
| 20260901220503 | 75 | 233 | 8.7 | 13.9 | 0.00 | 0.00 | 0.00 | 23 | 1017.5 |
| 20260901220003 | 75 | 219 | 9.6 | 13.9 | 0.00 | 0.00 | 0.00 | 23 | 1017.5 |
| 20260901215503 | 75 | 218 | 9.6 | 13.9 | 0.00 | 0.00 | 0.00 | 24 | 1017.5 |
| 20260901214504 | 75 | 221 | 9.6 | 16.5 | 0.00 | 0.00 | 0.00 | 23 | 1017.5 |
| 20260901214003 | 75 | 224 | 9.6 | 13.9 | 0.00 | 0.00 | 0.00 | 22 | 1017.5 |
| 20260901213503 | 74 | 214 | 10.4 | 13.9 | 0.00 | 0.00 | 0.00 | 20 | 1017.4 |
| 20260901213004 | 74 | 212 | 11.3 | 18.2 | 0.00 | 0.00 | 0.00 | 21 | 1017.4 |
| 20260901212002 | 74 | 220 | 11.3 | 18.2 | 0.00 | 0.00 | 0.00 | 22 | 1017.5 |
| 20260901211502 | 74 | 227 | 12.2 | 15.6 | 0.00 | 0.00 | 0.00 | 25 | 1017.6 |
| 20260901211002 | 73 | 228 | 13.0 | 19.1 | 0.00 | 0.00 | 0.00 | 27 | 1017.6 |
| 20260901210002 | 73 | 231 | 13.9 | 16.5 | 0.00 | 0.00 | 0.00 | 29 | 1017.6 |
| 20260901205502 | 72 | 231 | 13.9 | 20.9 | 0.00 | 0.00 | 0.00 | 30 | 1017.7 |
| 20260901205002 | 72 | 232 | 13.9 | 20.9 | 0.00 | 0.00 | 0.00 | 32 | 1017.7 |
| 20260901203503 | 73 | 211 | 12.2 | 16.5 | 0.00 | 0.00 | 0.00 | 31 | 1017.7 |
| 20260901203002 | 72 | 232 | 12.2 | 18.2 | 0.00 | 0.00 | 0.00 | 30 | 1017.7 |
| 20260901202502 | 72 | 236 | 11.3 | 19.1 | 0.00 | 0.00 | 0.00 | 29 | 1017.7 |
| 20260901202002 | 73 | 227 | 11.3 | 18.2 | 0.00 | 0.00 | 0.00 | 29 | 1017.7 |
| 20260901201502 | 73 | 232 | 10.4 | 18.2 | 0.00 | 0.00 | 0.00 | 28 | 1017.7 |
| 20260901201002 | 73 | 224 | 10.4 | 16.5 | 0.00 | 0.00 | 0.00 | 26 | 1017.8 |
| 20260901200503 | 73 | 223 | 10.4 | 13.9 | 0.00 | 0.00 | 0.00 | 26 | 1017.9 |
| 20260901200002 | 73 | 216 | 11.3 | 16.5 | 0.00 | 0.00 | 0.00 | 24 | 1017.8 |
| 20260901195002 | 73 | 236 | 12.2 | 20.0 | 0.00 | 0.00 | 0.00 | 24 | 1018.1 |
| 20260901194502 | 74 | 237 | 10.4 | 21.7 | 0.00 | 0.00 | 0.00 | 23 | 1018.0 |
| 20260901194003 | 76 | 228 | 7.8 | 19.1 | 0.00 | 0.00 | 0.00 | 19 | 1018.1 |
| 20260901193502 | 77 | 223 | 7.8 | 10.4 | 0.00 | 0.00 | 0.00 | 19 | 1018.2 |
| 20260901193002 | 77 | 196 | 7.0 | 11.3 | 0.00 | 0.00 | 0.00 | 15 | 1018.3 |
| 20260901192502 | 77 | 165 | 7.0 | 15.6 | 0.00 | 0.00 | 0.00 | 15 | 1018.3 |
| 20260901192003 | 77 | 183 | 6.1 | 19.1 | 0.00 | 0.00 | 0.00 | 15 | 1018.2 |
| 20260901191502 | 77 | 240 | 5.2 | 13.9 | 0.00 | 0.00 | 0.00 | 19 | 1018.2 |
| 20260901191002 | 77 | 203 | 5.2 | 11.3 | 0.00 | 0.00 | 0.00 | 12 | 1018.1 |
| 20260901190502 | 78 | 203 | 3.5 | 10.4 | 0.00 | 0.00 | 0.00 | 13 | 1018.3 |
| 20260901190003 | 77 | 160 | 6.1 | 11.3 | 0.00 | 0.00 | 0.00 | 10 | 1018.1 |
| 20260901185502 | 77 | 189 | 7.0 | 10.4 | 0.00 | 0.00 | 0.00 | 11 | 1018.2 |
| 20260901185002 | 78 | 204 | 6.1 | 11.3 | 0.00 | 0.00 | 0.00 | 19 | 1018.4 |
| 20260901184503 | 78 | 167 | 6.1 | 16.5 | 0.00 | 0.00 | 0.00 | 9 | 1018.2 |
| 20260901183502 | 78 | 192 | 9.6 | 15.6 | 0.00 | 0.00 | 0.00 | 11 | 1018.1 |
| 20260901183002 | 78 | 183 | 7.8 | 16.5 | 0.00 | 0.00 | 0.00 | 10 | 1018.1 |
| 20260901182502 | 77 | 195 | 6.1 | 16.5 | 0.00 | 0.00 | 0.00 | 11 | 1017.9 |
| 20260901182003 | 77 | 165 | 7.8 | 8.7 | 0.00 | 0.00 | 0.00 | 11 | 1018.1 |
| 20260901181002 | 77 | 177 | 8.7 | 16.5 | 0.00 | 0.00 | 0.00 | 11 | 1018.0 |
| 20260901180502 | 77 | 177 | 8.7 | 11.3 | 0.00 | 0.00 | 0.00 | 11 | 1017.9 |
| 20260901180002 | 76 | 173 | 7.8 | 15.6 | 0.00 | 0.00 | 0.00 | 11 | 1017.8 |
| 20260901175502 | 76 | 176 | 7.8 | 13.0 | 0.00 | 0.00 | 0.00 | 11 | 1017.8 |
| 20260901175003 | 76 | 152 | 7.8 | 14.8 | 0.00 | 0.00 | 0.00 | 11 | 1017.8 |
| 20260901174503 | 76 | 162 | 6.1 | 18.2 | 0.00 | 0.00 | 0.00 | 12 | 1017.9 |
| 20260901174002 | 76 | 168 | 6.1 | 11.3 | 0.00 | 0.00 | 0.00 | 12 | 1017.7 |
| 20260901173502 | 75 | 167 | 7.0 | 10.4 | 0.00 | 0.00 | 0.00 | 13 | 1017.8 |
| 20260901173003 | 74 | 163 | 5.2 | 13.9 | 0.00 | 0.00 | 0.00 | 14 | 1017.8 |
| 20260901172503 | 72 | 148 | 3.5 | 12.2 | 0.00 | 0.00 | 0.00 | 16 | 1017.7 |
| 20260901172002 | 70 | 53 | 3.5 | 7.8 | 0.00 | 0.00 | 0.00 | 23 | 1017.8 |
| 20260901171502 | 68 | 222 | 4.3 | 11.3 | 0.00 | 0.00 | 0.00 | 21 | 1017.7 |
| 20260901171002 | 68 | 268 | 3.5 | 7.8 | 0.00 | 0.00 | 0.00 | 27 | 1017.8 |
| 20260901170502 | 67 | 256 | 4.3 | 7.8 | 0.00 | 0.00 | 0.00 | 26 | 1017.8 |
| 20260901170003 | 67 | 251 | 3.5 | 11.3 | 0.00 | 0.00 | 0.00 | 28 | 1018.0 |